Starlink 31746

operational
NORAD ID: 59613 Int'l Des: 2024-080 Owner: SPXS Country: US Constellation: starlink
LEOCIRCULAR

Über Starlink 31746

Beschreibung wird geladen...

Live-Position

3D-Globus wird geladen...

Nächste Überflüge

Höhenverlauf

Altitude vs Time

uPlot chart will show altitude changes over time

Zweizeiliger Elementsatz

1 59613U 24080N 25258.43287872 .00000515 00000-0 28244-4 0 9996
2 59613 43.0022 311.5930 0001191 266.7793 93.2923 15.27578296 77689
Epoch: 15. Sept. 2025 • Age: 12 hours

Aktueller Status

Höhe 490.4 km
Geschwindigkeit 7.62 km/s
Subsatellitenpunkt -29.91°S, 65.39°W
Startdatum 28. Apr. 2024
Alter 1.3 years
Typ internet

Technische Details

Klassifizierung Payload
Masse 730.00 kg
Trockenmasse 700.00 kg
Gesamtmasse 730.00 kg
Länge 0.30 m
Durchmesser 4.10 m
Spannweite 29.00 m
Form Box + pan
Hersteller SPXS
Bus-Typ Starlink V2M
Phasenstatus In Orbit
Besitzer/Staat SPXS/US

Große Konstellationen

Loading constellations...